Reidsville, NC

7:07 PM EDT on April 30, 2017 (GMT -0400)
Reidsville

Weather History for KSIF - March, 2013

Change the Weather History Date:

Thursday, March 21, 2013

  Actual Average (KGSO) Record (KGSO)
Temperature  
Mean Temperature 38 °F -  
Max Temperature 48 °F 61 °F 89 °F (1968)
Min Temperature 27 °F 39 °F 15 °F (1965)
Degree Days  
Heating Degree Days 28    
Moisture  
Dew Point 14 °F    
Average Humidity 42    
Maximum Humidity 62    
Minimum Humidity 29    
Precipitation  
Precipitation 0.00 in - - ()
Sea Level Pressure  
Sea Level Pressure 29.85 in    
Wind  
Wind Speed 5 mph (NW)    
Max Wind Speed 10 mph    
Max Gust Speed 21 mph    
Visibility 10 miles    
Events      
Averages and records for this station are not official NWS values.
T = Trace of Precipitation, MM = Missing Value Source: NWS Daily Summary

Daily Weather History Graph

Daily Weather History Graph

Search for Another Location

Airport or City:

Trip Planner

Search our weather history database for the weather conditions in past years. The results will help you decide how hot, cold, wet, or windy it might be!

Date:

Astronomy

Mar. 21, 2013 Rise Set
Actual Time 7:21 AM EDT 7:32 PM EDT
Civil Twilight 6:55 AM EDT 7:58 PM EDT
Nautical Twilight 6:25 AM EDT 8:28 PM EDT
Astronomical Twilight 5:54 AM EDT 8:58 PM EDT
Moon 2:08 PM EDT (3/21) 3:33 AM EDT (3/21)
Length of Visible Light 13h 02m
Length of Day
12h 11m
Waxing Gibbous, 68% of the Moon is Illuminated
Mar 21
Waxing Gibbous
Mar 27
Full
Apr 3
Last Quarter
Apr 10
New
Apr 18
First Quarter

Hourly Weather History & Observations

Time (EDT) Temp. Windchill Dew Point Humidity Pressure Visibility Wind Dir Wind Speed Gust Speed Precip Events Conditions
12:15 AM 48.4 °F - 17.4 °F 29% 29.77 in 10.0 mi WNW 5.8 mph - N/A   Overcast
12:35 AM 46.6 °F - 17.1 °F 31% 29.78 in 10.0 mi WNW 4.6 mph - N/A   Scattered Clouds
12:55 AM 46.8 °F - 18.0 °F 32% 29.78 in 10.0 mi WNW 9.2 mph - N/A   Mostly Cloudy
1:15 AM 45.7 °F 41.5 °F 19.4 °F 35% 29.78 in 10.0 mi WNW 8.1 mph - N/A   Overcast
1:35 AM 44.2 °F 41.0 °F 23.2 °F 43% 29.78 in 10.0 mi NW 5.8 mph 16.1 mph N/A   Overcast
1:55 AM 43.2 °F 40.5 °F 24.3 °F 47% 29.78 in 10.0 mi NNW 4.6 mph - N/A   Overcast
2:15 AM 42.1 °F 40.2 °F 26.6 °F 54% 29.80 in 10.0 mi NW 3.5 mph - N/A   Overcast
2:35 AM 40.8 °F 38.8 °F 26.2 °F 56% 29.80 in 10.0 mi NNW 3.5 mph - N/A   Overcast
2:55 AM 40.1 °F - 26.2 °F 58% 29.79 in 10.0 mi Calm Calm - N/A   Overcast
3:15 AM 39.7 °F - 26.2 °F 59% 29.79 in 10.0 mi Calm Calm - N/A   Overcast
3:35 AM 38.7 °F - 26.2 °F 61% 29.78 in 10.0 mi Calm Calm - N/A   Overcast
3:55 AM 38.3 °F - 26.4 °F 62% 29.78 in 10.0 mi Calm Calm - N/A   Overcast
4:35 AM 37.4 °F 32.1 °F 23.0 °F 56% 29.78 in 10.0 mi NNW 6.9 mph - N/A   Mostly Cloudy
4:55 AM 36.1 °F 32.3 °F 20.7 °F 53% 29.78 in 10.0 mi North 4.6 mph - N/A   Mostly Cloudy
5:15 AM 35.6 °F 29.9 °F 19.4 °F 52% 29.79 in 10.0 mi NW 6.9 mph - N/A   Mostly Cloudy
5:35 AM 34.7 °F 29.6 °F 18.7 °F 52% 29.80 in 10.0 mi NNW 5.8 mph - N/A   Mostly Cloudy
5:55 AM 33.8 °F - 17.8 °F 52% 29.80 in 10.0 mi Calm Calm - N/A   Scattered Clouds
6:15 AM 32.9 °F 28.5 °F 18.0 °F 54% 29.80 in 10.0 mi NNW 4.6 mph - N/A   Clear
6:35 AM 32.0 °F 27.5 °F 17.6 °F 55% 29.81 in 10.0 mi NW 4.6 mph - N/A   Clear
6:55 AM 32.0 °F 27.5 °F 16.0 °F 52% 29.81 in 10.0 mi NNW 4.6 mph - N/A   Clear
7:15 AM 32.0 °F 28.7 °F 13.8 °F 47% 29.82 in 10.0 mi NNW 3.5 mph - N/A   Clear
7:35 AM 32.0 °F 27.5 °F 12.7 °F 45% 29.82 in 10.0 mi NNW 4.6 mph - N/A   Clear
7:55 AM 31.8 °F 26.2 °F 12.2 °F 44% 29.83 in 10.0 mi NNW 5.8 mph - N/A   Clear
8:15 AM 32.5 °F 27.1 °F 12.0 °F 43% 29.83 in 10.0 mi NNW 5.8 mph - N/A   Clear
8:35 AM 33.4 °F 28.1 °F 12.4 °F 42% 29.84 in 10.0 mi NW 5.8 mph - N/A   Clear
8:55 AM 34.2 °F 29.0 °F 12.7 °F 41% 29.84 in 10.0 mi NNW 5.8 mph - N/A   Clear
9:15 AM 34.5 °F 28.6 °F 12.7 °F 41% 29.84 in 10.0 mi NW 6.9 mph - N/A   Scattered Clouds
9:35 AM 35.6 °F 29.9 °F 13.5 °F 40% 29.84 in 10.0 mi NNW 6.9 mph - N/A   Scattered Clouds
9:55 AM 34.3 °F 27.0 °F 13.6 °F 43% 29.85 in 10.0 mi NNW 9.2 mph - N/A   Scattered Clouds
10:15 AM 35.8 °F 28.8 °F 13.8 °F 41% 29.85 in 10.0 mi West 9.2 mph - N/A   Scattered Clouds
10:35 AM 36.1 °F 29.9 °F 14.0 °F 40% 29.85 in 10.0 mi WNW 8.1 mph - N/A   Scattered Clouds
10:55 AM 35.8 °F 30.9 °F 14.0 °F 41% 29.86 in 10.0 mi NW 5.8 mph - N/A   Scattered Clouds
11:15 AM 36.1 °F 30.6 °F 13.1 °F 39% 29.86 in 10.0 mi NNW 6.9 mph - N/A   Scattered Clouds
11:35 AM 37.8 °F 34.2 °F 12.6 °F 36% 29.85 in 10.0 mi North 4.6 mph 16.1 mph N/A   Clear
11:55 AM 37.8 °F 31.3 °F 10.9 °F 33% 29.84 in 10.0 mi NNW 9.2 mph 16.1 mph N/A   Scattered Clouds
12:15 PM 39.2 °F 33.0 °F 12.9 °F 34% 29.85 in 10.0 mi NW 9.2 mph - N/A   Scattered Clouds
12:55 PM 36.3 °F - 11.8 °F 36% 29.85 in 10.0 mi Calm Calm - N/A   Mostly Cloudy
1:15 PM 38.1 °F 32.9 °F 13.1 °F 36% 29.85 in 10.0 mi NW 6.9 mph - N/A   Mostly Cloudy
1:55 PM 36.7 °F 32.9 °F 12.4 °F 37% 29.84 in 10.0 mi NNW 4.6 mph - N/A   Mostly Cloudy
2:15 PM 37.2 °F - 12.9 °F 37% 29.83 in 10.0 mi Calm Calm - N/A   Overcast
2:35 PM 38.8 °F 33.2 °F 14.2 °F 37% 29.83 in 10.0 mi North 8.1 mph - N/A   Overcast
2:55 PM 37.2 °F 31.2 °F 13.5 °F 38% 29.83 in 10.0 mi WNW 8.1 mph - N/A   Overcast
3:15 PM 37.8 °F 33.3 °F 10.8 °F 33% 29.82 in 10.0 mi NNW 5.8 mph - N/A   Overcast
3:35 PM 39.9 °F 35.1 °F 10.8 °F 30% 29.82 in 10.0 mi NNW 6.9 mph 16.1 mph N/A   Overcast
3:55 PM 39.2 °F 32.5 °F 10.2 °F 30% 29.83 in 10.0 mi WNW 10.4 mph 17.3 mph N/A   Overcast
4:15 PM 38.5 °F 32.7 °F 9.3 °F 30% 29.84 in 10.0 mi WNW 8.1 mph - N/A   Overcast
4:35 PM 40.5 °F 34.6 °F 10.0 °F 29% 29.85 in 10.0 mi NW 9.2 mph - N/A   Overcast
4:55 PM 39.2 °F 34.2 °F 9.9 °F 30% 29.86 in 10.0 mi NW 6.9 mph - N/A   Overcast
5:15 PM 37.4 °F 30.8 °F 9.1 °F 31% 29.87 in 10.0 mi NW 9.2 mph 16.1 mph N/A   Overcast
5:55 PM 37.8 °F 31.3 °F 9.3 °F 31% 29.88 in 10.0 mi WNW 9.2 mph 17.3 mph N/A   Overcast
6:15 PM 35.8 °F 30.1 °F 9.3 °F 33% 29.88 in 10.0 mi NNW 6.9 mph - N/A   Scattered Clouds
6:35 PM 36.7 °F 30.5 °F 8.6 °F 31% 29.89 in 10.0 mi NW 8.1 mph - N/A   Scattered Clouds
6:55 PM 35.4 °F 27.8 °F 8.4 °F 33% 29.90 in 10.0 mi WNW 10.4 mph 20.7 mph N/A   Scattered Clouds
7:15 PM 34.5 °F 29.4 °F 7.9 °F 33% 29.91 in 10.0 mi NW 5.8 mph - N/A   Mostly Cloudy
7:35 PM 33.3 °F 27.9 °F 8.2 °F 35% 29.91 in 10.0 mi WNW 5.8 mph - N/A   Mostly Cloudy
7:55 PM 32.5 °F 27.1 °F 7.7 °F 35% 29.92 in 10.0 mi NW 5.8 mph - N/A   Clear
8:15 PM 32.0 °F 26.4 °F 8.6 °F 38% 29.93 in 10.0 mi NW 5.8 mph - N/A   Clear
8:35 PM 31.5 °F - 9.3 °F 40% 29.94 in 10.0 mi Calm Calm - N/A   Clear
8:55 PM 31.6 °F 27.0 °F 9.9 °F 40% 29.95 in 10.0 mi NNW 4.6 mph - N/A   Clear
9:15 PM 31.1 °F - 10.0 °F 41% 29.96 in 10.0 mi Calm Calm - N/A   Clear
9:55 PM 30.0 °F - 10.8 °F 45% 29.97 in 10.0 mi Calm Calm - N/A   Clear
10:15 PM 28.9 °F - 11.8 °F 49% 29.98 in 10.0 mi Calm Calm - N/A   Clear
10:55 PM 29.1 °F 24.1 °F 11.1 °F 47% 29.98 in 10.0 mi NNW 4.6 mph - N/A   Clear
11:15 PM 28.8 °F - 10.9 °F 47% 29.99 in 10.0 mi Calm Calm - N/A   Clear
11:35 PM 27.5 °F - 11.8 °F 52% 29.99 in 10.0 mi Calm Calm - N/A   Clear
11:55 PM 28.9 °F 25.2 °F 10.4 °F 46% 30.00 in 10.0 mi NNW 3.5 mph - N/A   Clear